[[{"header":{"parameterUnit":"m.s-1","parameterCategory":1,"la1":30.2992,"la2":30.254,"lo1":-89.0895,"lo2":-89.0443,"dy":0.0025,"dx":0.0025,"nx":19,"ny":19,"refTime":"2026-04-21T21:00:00:Z","depth":0,"parameterNumber":2,"parameterNumberName":"U-component_of_WINDS"},"data":[0,0,0,-3.5183,-3.5185,-3.5298,-3.5298,-3.5446,-3.5447,0,0,0,0,0,0,0,0,0,0,0,-3.5151,-3.5152,-3.5183,-3.5186,-3.5298,-3.5298,-3.5445,-3.5447,0,0,0,0,0,0,0,0,0,0,0,-3.515,-3.5152,-3.5153,-3.5186,-3.5297,-3.5298,-3.5445,-3.5359,0,0,0,0,0,0,0,0,0,0,-3.525,-3.5221,-3.5151,-3.5153,-3.5187,-3.5297,-3.5298,-3.5355,-3.5365,-3.5396,0,-3.5423,0,-3.5437,-3.5457,-3.5457,0,0,0,-3.5185,-3.5213,-3.5242,-3.5153,-3.5188,-3.5297,-3.5247,-3.536,-3.5371,-3.5409,-3.5425,-3.5431,-3.544,-3.5458,-3.5459,-3.564,-3.564,0,0,-3.5179,-3.5172,-3.5234,-3.5249,-3.5231,-3.5243,-3.525,-3.5367,-3.5385,-3.5426,-3.5434,-3.5442,-3.5459,-3.546,-3.5639,-3.564,0,0,0,-3.5161,-3.5167,-3.5194,-3.5243,-3.5263,-3.5246,-3.5255,-3.538,-3.5389,-3.5436,-3.5444,-3.546,-3.5462,-3.5638,-3.5639,-3.5674,0,0,0,-3.5158,-3.5157,-3.5191,-3.5188,-3.5261,-3.5322,-3.5265,-3.5381,-3.5394,-3.5443,-3.546,-3.5463,-3.5637,-3.5639,-3.5671,-3.5692,0,0,0,-3.5143,-3.5156,-3.5172,-3.5187,-3.5235,-3.5321,-3.5336,-3.5384,-3.5399,-3.5458,-3.5463,-3.5636,-3.5638,-3.5669,-3.5688,-3.5737,0,0,0,-3.5126,-3.5202,-3.5173,-3.5262,-3.5234,-3.5342,-3.5336,-3.5416,-3.5471,-3.546,-3.5637,-3.5639,-3.5668,-3.5685,-3.5734,-3.5777,-3.5794,0,0,-3.5218,-3.5213,-3.5266,-3.5243,-3.5353,-3.5325,-3.5442,-3.5499,-3.5511,-3.5596,-3.5601,-3.5672,-3.5687,-3.5737,-3.5895,-3.5908,0,0,0,-3.5293,-3.5331,-3.5362,-3.5413,-3.5458,-3.5498,-3.5538,-3.556,-3.5632,-3.5553,-3.5704,-3.5714,-3.5743,-3.5763,-3.5775,-3.58,-3.5649,-3.5648,-3.5648,-3.5413,-3.5425,-3.5514,-3.5539,-3.5589,-3.563,-3.5671,-3.5707,-3.5705,-3.5741,-3.5766,-3.586,-3.5884,-3.5893,-3.5919,-3.579,-3.579,-3.579,-3.579,-3.5549,-3.5604,-3.56,-3.5684,-3.5697,-3.5768,-3.5811,-3.5808,-3.5876,-3.5842,-3.5869,-3.5829,-3.5907,-3.5931,-3.5793,-3.5793,-3.5792,-3.5792,-3.5792,-3.5628,-3.5657,-3.5681,-3.5757,-3.5814,-3.5838,-3.5905,-3.5914,-3.5924,-3.595,-3.5978,-3.5977,-3.5977,-3.5963,-3.5963,-3.5964,-3.5964,-3.5964,-3.5964,-3.57,-3.5726,-3.578,-3.5835,-3.587,-3.5917,-3.596,-3.5994,-3.6035,-3.6037,-3.6038,-3.6032,-3.5913,-3.5882,-3.5969,-3.5968,-3.5968,-3.5967,-3.5967,-3.5831,-3.5803,-3.5886,-3.5921,-3.5987,-3.6044,-3.6056,-3.6126,-3.6156,-3.6189,-3.6178,-3.6089,-3.6084,-3.6075,-3.605,-3.6175,-3.6175,-3.6175,-3.6175,-3.5897,-3.5896,-3.5983,-3.6038,-3.6093,-3.6113,-3.6208,-3.6243,-3.6275,-3.6295,-3.6279,-3.6246,-3.6237,-3.6238,-3.6225,-3.6202,-3.6363,-3.6363,-3.6363,-3.5978,-3.5983,-3.6061,-3.6091,-3.6144,-3.619,-3.628,-3.6344,-3.6375,-3.6371,-3.631,-3.6303,-3.6251,-3.6233,-3.6226,-3.6206,-3.6163,0,0]},{"header":{"parameterUnit":"m.s-1","parameterCategory":1,"la1":30.2992,"la2":30.254,"lo1":-89.0895,"lo2":-89.0443,"dy":0.0025,"dx":0.0025,"nx":19,"ny":19,"refTime":"2026-04-21T21:00:00:Z","depth":0,"parameterNumber":3,"parameterNumberName":"V-component_of_WINDS"},"data":[0,0,0,3.9822,3.9823,3.9875,3.9875,3.994,3.9941,0,0,0,0,0,0,0,0,0,0,0,3.9806,3.9807,3.9822,3.9823,3.9875,3.9875,3.994,3.9941,0,0,0,0,0,0,0,0,0,0,0,3.9806,3.9807,3.9807,3.9823,3.9875,3.9875,3.994,3.9901,0,0,0,0,0,0,0,0,0,0,3.9851,3.9836,3.9807,3.9807,3.9824,3.9875,3.9875,3.9899,3.9903,3.9916,0,3.9928,0,3.9936,3.9945,3.9945,0,0,0,3.9823,3.9833,3.9847,3.9807,3.9824,3.9875,3.9852,3.9902,3.9906,3.9922,3.9929,3.9931,3.9937,3.9945,3.9946,4.0022,4.0022,0,0,3.982,3.9815,3.9844,3.985,3.9843,3.985,3.9853,3.9905,3.9912,3.9929,3.9933,3.9938,3.9946,3.9946,4.0021,4.0022,0,0,0,3.9812,3.9813,3.9826,3.9848,3.9857,3.9851,3.9855,3.9909,3.9914,3.9934,3.9938,3.9946,3.9947,4.0021,4.0021,4.0034,0,0,0,3.981,3.9809,3.9825,3.9823,3.9856,3.9884,3.9859,3.9911,3.9917,3.9938,3.9946,3.9948,4.002,4.0021,4.0033,4.0041,0,0,0,3.9803,3.9808,3.9815,3.9822,3.9845,3.9883,3.9891,3.9912,3.9919,3.9945,3.9948,4.002,4.0021,4.0032,4.0039,4.0059,0,0,0,3.9793,3.9825,3.9815,3.9853,3.9844,3.9892,3.9891,3.9926,3.995,3.9947,4.002,4.0021,4.0032,4.0038,4.0058,4.0074,4.0081,0,0,3.9831,3.983,3.9852,3.9845,3.9893,3.9884,3.9934,3.996,3.9966,4.0002,4.0004,4.0033,4.0039,4.0059,4.0122,4.0127,0,0,0,3.9862,3.9878,3.9892,3.9915,3.9937,3.9955,3.9975,3.9984,4.0016,3.9984,4.0047,4.005,4.0062,4.007,4.0074,4.0085,4.0025,4.0025,4.0025,3.9907,3.9915,3.9953,3.9967,3.9989,4.001,4.0028,4.0045,4.0045,4.006,4.007,4.0108,4.0117,4.012,4.0131,4.008,4.008,4.0081,4.0081,3.9962,3.9985,3.9987,4.0024,4.0032,4.0063,4.0084,4.0084,4.0113,4.01,4.0111,4.0095,4.0126,4.0136,4.0082,4.0081,4.0081,4.0081,4.0081,3.9991,4.0004,4.0016,4.0051,4.0076,4.009,4.0119,4.0125,4.0131,4.0142,4.0153,4.0153,4.0153,4.0147,4.0147,4.0147,4.0148,4.0148,4.0148,4.0016,4.0029,4.0053,4.008,4.0096,4.0118,4.0139,4.0155,4.0174,4.0176,4.0176,4.0175,4.0128,4.0116,4.015,4.0149,4.0149,4.0149,4.0149,4.0066,4.0056,4.0093,4.0109,4.0141,4.0166,4.0175,4.0207,4.022,4.0234,4.0232,4.0197,4.0195,4.0192,4.0181,4.023,4.023,4.023,4.023,4.009,4.0091,4.013,4.0156,4.0182,4.0194,4.0234,4.0252,4.0268,4.0277,4.0271,4.0258,4.0255,4.0256,4.0251,4.0241,4.0304,4.0304,4.0304,4.0121,4.0125,4.0159,4.0176,4.0202,4.0224,4.0262,4.0291,4.0307,4.0307,4.0284,4.0281,4.0261,4.0254,4.0252,4.0244,4.0226,0,0]}]]